[[{"header":{"parameterUnit":"m.s-1","parameterCategory":1,"la1":30.2991,"la2":30.254,"lo1":-89.0895,"lo2":-89.0444,"dy":0.0017,"dx":0.0017,"nx":28,"ny":28,"refTime":"2024-05-24T09:00:00:Z","depth":0,"parameterNumber":2,"parameterNumberName":"U-component_of_WINDS"},"data":[0,0,0,0,0,0,0,0,0,0,0,0,0,0,0,0,0,0,0,0,0,0,0,0,0,0,0,0,0,0,0,0,0,0,0,0,0,0,0,0,0,0,0,0,0,0,0,0,0,0,0,0,0,0,0,0,0,0,0.9338,0.9338,0,0.9335,0.9335,0.9335,0.9297,0.9297,0.9296,0.9295,0.9292,0.9293,0.9293,0,0,0,0,0,0,0,0,0,0,0,0,0,0.931,0.9311,0.9338,0.9338,0.9338,0.9335,0.9335,0.9335,0.9298,0.9297,0.9295,0.9294,0.9292,0.9293,0.9294,0,0,0,0,0,0,0,0,0,0,0,0,0,0.9316,0.9311,0.9338,0.9319,0.9317,0.9335,0.9335,0.9335,0.9298,0.9296,0.9295,0.9294,0.9291,0.9292,0.9294,0.9329,0,0,0.9297,0.9298,0,0,0,0,0,0,0,0,0.9316,0.9317,0.9322,0.932,0.9318,0.9315,0.9324,0.9333,0.9298,0.9305,0.9295,0.9293,0.9301,0.9301,0.9304,0.9329,0.9329,0.9297,0.9298,0.9299,0.9299,0,0,0,0,0,0,0,0.9316,0.9317,0.9337,0.9322,0.932,0.931,0.9309,0.9326,0.9311,0.9304,0.9302,0.9302,0.93,0.9303,0.9303,0.9329,0.9297,0.9299,0.9299,0.93,0.9382,0.9384,0,0,0,0,0,0,0.9318,0.9317,0.9337,0.9336,0.9314,0.9312,0.9311,0.9318,0.9311,0.9308,0.9303,0.93,0.9301,0.9302,0.9303,0.9343,0.9299,0.93,0.9301,0.9381,0.9383,0.9384,0,0,0,0,0,0,0.9317,0.932,0.9337,0.9326,0.9327,0.9314,0.9321,0.9318,0.9321,0.931,0.9307,0.9309,0.93,0.9301,0.9323,0.9343,0.93,0.9301,0.9379,0.9381,0.9383,0.9425,0,0,0,0,0,0,0.9317,0.932,0.9334,0.9327,0.9328,0.9357,0.9323,0.9319,0.9323,0.9319,0.9314,0.9312,0.9299,0.9321,0.9324,0.9343,0.9302,0.9377,0.938,0.9383,0.9421,0.9428,0.9433,0,0,0,0,0,0.9316,0.9346,0.9335,0.9337,0.9345,0.9358,0.9359,0.9343,0.9325,0.9338,0.9331,0.9312,0.934,0.9324,0.9327,0.9347,0.9376,0.9379,0.9382,0.9419,0.9427,0.9433,0,0,0,0,0,0,0.9356,0.9345,0.9332,0.9361,0.9361,0.9352,0.9368,0.9353,0.9358,0.9354,0.9334,0.9333,0.9357,0.9354,0.9336,0.938,0.9355,0.9359,0.9381,0.9389,0.9395,0.9394,0.9303,0,0,0,0,0,0.9368,0.938,0.9369,0.9396,0.9396,0.9382,0.9387,0.9375,0.9374,0.9374,0.9368,0.9368,0.9376,0.9383,0.939,0.9421,0.9418,0.9436,0.9442,0.9447,0.9451,0.9465,0.9473,0.9395,0.9395,0.9395,0,0,0.9394,0.9389,0.9397,0.9403,0.9402,0.9414,0.9383,0.9397,0.9405,0.9376,0.9396,0.9391,0.939,0.9416,0.9427,0.9414,0.9472,0.9451,0.9456,0.9456,0.9469,0.9477,0.9483,0.9397,0.9397,0.9396,0,0,0.9445,0.9444,0.9464,0.9463,0.9461,0.9451,0.9457,0.945,0.9446,0.9465,0.9443,0.9453,0.9468,0.9467,0.9469,0.952,0.9502,0.9523,0.9554,0.9569,0.9575,0.958,0.9597,0.9603,0.9526,0.9526,0.9527,0,0.9477,0.9494,0.9477,0.9492,0.9495,0.9469,0.9489,0.9489,0.949,0.9492,0.9478,0.9496,0.9493,0.9518,0.953,0.9532,0.9537,0.9523,0.9575,0.958,0.9585,0.9601,0.9607,0.9529,0.9529,0.9528,0.9528,0,0.9532,0.9545,0.9562,0.9562,0.9567,0.9585,0.957,0.9577,0.9564,0.9556,0.9575,0.9571,0.9576,0.9581,0.957,0.9604,0.9596,0.9579,0.9553,0.9595,0.9609,0.9615,0.9532,0.9531,0.9531,0.953,0,0,0.961,0.96,0.9606,0.9605,0.9601,0.9609,0.9626,0.9631,0.9636,0.9638,0.965,0.9663,0.9647,0.9649,0.9637,0.965,0.9688,0.9631,0.963,0.964,0.9725,0.9737,0.9744,0.9677,0.9678,0.9679,0.9724,0,0.9658,0.9685,0.967,0.9699,0.9709,0.9684,0.9698,0.9697,0.969,0.9697,0.9689,0.9698,0.9677,0.9677,0.9689,0.9681,0.9705,0.9678,0.9688,0.9688,0.9688,0.9752,0.9765,0.9808,0.973,0.9731,0.9732,0,0.9719,0.9722,0.9752,0.9744,0.9748,0.9761,0.9763,0.9771,0.9768,0.9762,0.9764,0.9748,0.9763,0.9738,0.9757,0.9739,0.9742,0.9739,0.974,0.974,0.9712,0.9752,0.9821,0.9827,0.974,0.974,0.9739,0,0.977,0.9782,0.9801,0.9801,0.9793,0.9802,0.9799,0.9795,0.9799,0.9801,0.9803,0.9807,0.9809,0.9813,0.9798,0.9781,0.9819,0.9793,0.9814,0.9814,0.9822,0.9822,0.9892,0.9826,0.9826,0.9826,0.9826,0,0.9826,0.9845,0.9824,0.9835,0.9855,0.9837,0.9858,0.9852,0.9849,0.9858,0.9837,0.9847,0.9828,0.9835,0.9824,0.9841,0.9843,0.9838,0.9834,0.9839,0.9839,0.984,0.9836,0.9828,0.9828,0.9827,0.9827,0,0.9886,0.9873,0.9892,0.9882,0.988,0.9895,0.9886,0.9896,0.9888,0.99,0.9902,0.9888,0.9896,0.9882,0.9888,0.988,0.9904,0.9897,0.9905,0.9902,0.9923,0.9921,0.9995,1.0003,0.9934,0.9934,0.9935,0,0.9922,0.9936,0.9927,0.9932,0.993,0.9938,0.9941,0.9924,0.9928,0.9925,0.9935,0.9941,0.9945,0.9958,0.9948,0.9953,0.9944,0.997,0.9945,0.9949,0.9943,0.9942,0.9943,0.9975,0.9976,0.9977,0.9977,0,0.9986,0.9978,0.9984,0.9986,0.999,0.9992,0.9992,0.9997,0.9978,0.9984,0.9991,0.9994,1.0,1.0005,1.0007,1.0004,0.9987,0.9985,0.999,0.9994,0.9998,0.9995,0.9918,0.9983,0.9983,0.9982,0.9982,0.9982,1.0034,1.0044,1.004,1.0046,1.0044,1.0044,1.0052,1.0044,1.005,1.0053,1.0042,1.0052,1.0048,1.0048,1.0047,1.0054,1.0042,1.0049,1.0051,1.0053,1.0055,0.9998,1.0054,1.0054,1.0054,1.0054,1.0053,0,1.0096,1.0091,1.0097,1.0097,1.0102,1.0086,1.0084,1.0089,1.0098,1.0095,1.0099,1.0107,1.0112,1.0103,1.0106,1.0114,1.0106,1.0115,1.0114,1.0113,1.0066,1.0061,1.0121,1.0121,1.0121,1.0121,1.0121,1.0121,1.0128,1.0145,1.0136,1.0151,1.0147,1.0155,1.0156,1.0156,1.0153,1.0163,1.0167,1.0161,1.0155,1.0158,1.0162,1.0159,1.0161,1.0172,1.0167,1.0123,1.0116,1.011,1.0105,1.0173,1.0173,1.0213,1.0213,1.0213]},{"header":{"parameterUnit":"m.s-1","parameterCategory":1,"la1":30.2991,"la2":30.254,"lo1":-89.0895,"lo2":-89.0444,"dy":0.0017,"dx":0.0017,"nx":28,"ny":28,"refTime":"2024-05-24T09:00:00:Z","depth":0,"parameterNumber":3,"parameterNumberName":"V-component_of_WINDS"},"data":[0,0,0,0,0,0,0,0,0,0,0,0,0,0,0,0,0,0,0,0,0,0,0,0,0,0,0,0,0,0,0,0,0,0,0,0,0,0,0,0,0,0,0,0,0,0,0,0,0,0,0,0,0,0,0,0,0,0,4.1628,4.1629,0,4.1664,4.1665,4.1665,4.1611,4.1609,4.1607,4.1605,4.1638,4.1641,4.1644,0,0,0,0,0,0,0,0,0,0,0,0,0,4.1508,4.151,4.1628,4.1629,4.1629,4.1664,4.1665,4.1665,4.1611,4.1609,4.1606,4.1604,4.1638,4.1641,4.1644,0,0,0,0,0,0,0,0,0,0,0,0,0,4.1554,4.1511,4.1628,4.1606,4.1605,4.1664,4.1665,4.1665,4.1611,4.1608,4.1606,4.1603,4.1637,4.164,4.1644,4.1726,0,0,4.1657,4.1658,0,0,0,0,0,0,0,0,4.1551,4.1558,4.1609,4.1608,4.1606,4.163,4.1635,4.1686,4.1612,4.1609,4.1605,4.1602,4.1638,4.1641,4.1654,4.1727,4.1729,4.1657,4.1659,4.1661,4.1662,0,0,0,0,0,0,0,4.1548,4.1556,4.1642,4.161,4.1608,4.1593,4.1597,4.1644,4.1639,4.1609,4.1605,4.161,4.1636,4.1651,4.1655,4.1729,4.1657,4.166,4.1663,4.1664,4.187,4.1873,0,0,0,0,0,0,4.1548,4.1554,4.1641,4.1644,4.1571,4.1598,4.1602,4.1625,4.1638,4.1637,4.1613,4.1607,4.1645,4.165,4.1656,4.1751,4.1661,4.1665,4.1667,4.1867,4.187,4.1874,0,0,0,0,0,0,4.1546,4.1556,4.164,4.1598,4.1607,4.1603,4.163,4.1628,4.1642,4.1641,4.1639,4.1628,4.1643,4.165,4.1709,4.1752,4.1667,4.167,4.1863,4.1868,4.1872,4.1944,0,0,0,0,0,0,4.1543,4.1556,4.1588,4.1599,4.161,4.1694,4.1633,4.163,4.1649,4.1643,4.1655,4.1655,4.1642,4.1703,4.1713,4.1756,4.1673,4.1859,4.1865,4.1871,4.1938,4.195,4.1961,0,0,0,0,0,4.1538,4.1606,4.159,4.1601,4.165,4.1697,4.1703,4.1687,4.1653,4.1684,4.1683,4.1654,4.1746,4.171,4.172,4.1765,4.1856,4.1863,4.187,4.1932,4.1948,4.1961,0,0,0,0,0,0,4.16,4.1607,4.1589,4.1663,4.168,4.1687,4.1727,4.1704,4.173,4.1723,4.1701,4.1705,4.1768,4.1772,4.1732,4.1844,4.1795,4.1804,4.1839,4.1854,4.1865,4.1863,4.1677,0,0,0,0,0,4.1622,4.166,4.1664,4.1729,4.1738,4.1731,4.1751,4.1738,4.1753,4.176,4.1763,4.1779,4.1811,4.1832,4.1862,4.1938,4.1939,4.1974,4.1985,4.1995,4.2003,4.2043,4.2058,4.1896,4.1896,4.1896,0,0,4.1668,4.1677,4.1702,4.1742,4.1753,4.1792,4.1738,4.1781,4.1809,4.1766,4.1822,4.1825,4.184,4.1908,4.1938,4.1914,4.2048,4.2004,4.2012,4.2015,4.2052,4.2067,4.2081,4.1901,4.19,4.1899,0,0,4.1772,4.1783,4.1838,4.185,4.1868,4.1863,4.1876,4.1887,4.1887,4.1943,4.1911,4.1944,4.2,4.2012,4.2025,4.2133,4.2107,4.2143,4.2205,4.2243,4.2256,4.2267,4.2305,4.2319,4.2151,4.2151,4.2151,0,4.1827,4.1886,4.1868,4.1915,4.1932,4.1895,4.195,4.1962,4.1988,4.2001,4.1973,4.2042,4.205,4.2119,4.2146,4.2158,4.2171,4.2142,4.2256,4.2267,4.2277,4.2313,4.2327,4.2156,4.2155,4.2155,4.2154,0,4.1952,4.1993,4.2034,4.2062,4.2084,4.2134,4.2123,4.2147,4.2131,4.2128,4.2185,4.2193,4.2223,4.2238,4.2223,4.2306,4.229,4.226,4.221,4.2297,4.233,4.2344,4.2162,4.216,4.2159,4.2158,0,0,4.2096,4.2113,4.2129,4.214,4.2157,4.2187,4.2235,4.2265,4.2286,4.2305,4.2343,4.2391,4.2363,4.2378,4.2364,4.2398,4.2482,4.2363,4.2363,4.2385,4.2572,4.2595,4.2611,4.2464,4.2467,4.2469,4.2571,0,4.22,4.2283,4.2269,4.2349,4.2386,4.2351,4.2392,4.2406,4.2404,4.2434,4.2431,4.2465,4.2425,4.2434,4.2467,4.2465,4.2519,4.2457,4.2499,4.2501,4.2496,4.2629,4.2653,4.2749,4.2583,4.2586,4.2587,0,4.2332,4.2357,4.2441,4.2451,4.2466,4.2504,4.2529,4.2559,4.2573,4.2569,4.2586,4.2565,4.2611,4.2561,4.2623,4.2581,4.2597,4.2598,4.2601,4.2605,4.2549,4.2635,4.2779,4.2794,4.2608,4.2606,4.2605,0,4.2429,4.2483,4.254,4.2551,4.2564,4.2591,4.2597,4.2609,4.2628,4.265,4.2662,4.2689,4.2703,4.2724,4.271,4.2675,4.2774,4.2723,4.2771,4.2772,4.2794,4.2793,4.2943,4.2805,4.2804,4.2804,4.2804,0,4.2546,4.2599,4.2584,4.2619,4.2677,4.2658,4.2716,4.2717,4.2728,4.2762,4.2732,4.2765,4.2744,4.2775,4.2764,4.2816,4.2823,4.282,4.2817,4.2823,4.2824,4.2834,4.2827,4.2808,4.2807,4.2806,4.2806,0,4.2664,4.2656,4.2716,4.2724,4.2726,4.2769,4.2774,4.2806,4.2802,4.2845,4.2854,4.2847,4.2881,4.2869,4.2905,4.2897,4.2964,4.2952,4.296,4.2957,4.3006,4.3002,4.3167,4.3188,4.3037,4.3038,4.3039,0,4.274,4.278,4.2791,4.2812,4.2821,4.2856,4.2875,4.2857,4.2878,4.2897,4.2926,4.2958,4.2982,4.3038,4.3035,4.3062,4.305,4.3106,4.3054,4.3059,4.3051,4.3049,4.3052,4.3117,4.3119,4.312,4.3121,0,4.2874,4.2868,4.2898,4.2926,4.2949,4.297,4.2988,4.3007,4.299,4.3015,4.305,4.3069,4.3105,4.3137,4.3161,4.3166,4.3141,4.3138,4.315,4.3157,4.316,4.3159,4.2989,4.3134,4.3133,4.3132,4.3131,4.3131,4.2973,4.3007,4.302,4.3053,4.3065,4.3083,4.3113,4.3112,4.3141,4.3171,4.3158,4.3198,4.321,4.324,4.3248,4.3278,4.3256,4.3275,4.3279,4.3284,4.329,4.3155,4.3282,4.3282,4.3282,4.3281,4.3281,0,4.3106,4.3113,4.3144,4.317,4.3196,4.3171,4.3189,4.3212,4.3248,4.3261,4.3286,4.3325,4.3355,4.3354,4.3382,4.3406,4.3395,4.3414,4.3412,4.3413,4.3309,4.3295,4.3422,4.3422,4.3422,4.3422,4.3422,4.3422,4.3179,4.3234,4.3229,4.329,4.3295,4.3335,4.3348,4.3363,4.3373,4.3419,4.3444,4.3443,4.3451,4.3478,4.3504,4.3503,4.3514,4.3538,4.3532,4.3435,4.3421,4.3407,4.3394,4.354,4.354,4.3634,4.3635,4.3636]}]]